Vertical_Velocity
6 3 6 9 7 7 10 10 4 2 1 0 0 1 1 -0 -2 -1 -1 -1 0 -2 -2 -0 1 -1 -2 -3 -3 -1 -1 -2
3 1 2 1 -2 1 1 6 1 2 2 -0 2 1 0 4 5 3 5 6 6 3 -2 -4 3 0 -1 2 3 1 -4 0
4 2 1 1 -0 -0 0 2 -0 1 2 1 1 2 6 3 5 6 6 2 3 -2 -0 1 1 2 3 1 4 -2 -4 -0
2 1 1 2 1 2 2 3 3 2 2 -1 1 2 2 1 -1 -2 -3 -1 -4 -4 -5 -5 -5 -2 -5 0 3 4 -2 -2
-0 1 1 1 2 3 2 1 1 -2 -2 -0 -1 -0 -5 -4 -5 -9 -5 -10 -6 -2 -3 -2 1 1 -3 -1 4 2 7 1
0 0 -0 -1 -3 -2 -1 -0 -0 0 -0 -1 -1 -3 -8 3 1 -8 -2 4 3 1 -1 -2 -2 1 1 -1 1 2 3 4
-0 -0 1 1 1 -0 -0 -1 -1 -2 1 -4 4 -12 -5 6 -0 1 3 4 4 6 6 4 1 1 1 2 4 2 -0 3
1 0 2 -1 -0 -2 -0 -0 0 -3 -1 -4 -1 3 6 2 1 -2 -7 -10 -8 -7 -4 -3 -0 -0 -1 -0 -2 -3 -4 -4
0 -0 -1 -2 -5 -2 -1 -2 -1 5 2 6 9 2 -1 -5 -6 -10 -9 -6 -1 1 1 -1 1 2 4 5 0 -1 2 1
2 -0 -1 0 1 1 1 1 -1 0 -5 -9 -6 -5 -4 -3 -1 -0 -2 -1 -0 -2 -1 5 11 6 -1 5 1 0 -0 1
-2 -1 -1 -2 -2 -2 -6 -9 -5 1 3 2 -1 -2 -1 -4 -3 -4 -4 -2 0 6 13 5 3 -3 -3 1 6 14 7 4
-5 -5 -2 -1 -3 -0 4 1 1 2 1 -1 2 1 2 1 -1 0 1 4 -1 -3 -3 -2 -2 -2 -4 -5 -5 -5 -3 -7
3 2 0 -1 -0 2 3 1 0 -1 -2 -2 -1 2 4 -1 -3 -2 -4 1 -6 0 -0 -1 -6 -2 -1 6 3 0 2 1
-3 -0 1 1 2 -2 -1 -1 -3 -3 -2 0 -1 -3 -2 -1 -2 -1 -2 -2 -3 -1 -1 7 -1 -3 -1 2 2 2 1 0
0 -0 -1 -2 -4 -3 -2 -2 -3 -4 -2 -2 -1 0 -3 3 4 -2 8 10 8 5 -0 -3 -1 0 -0 2 0 -2 -2 -1
-4 -5 -2 -1 -1 -4 -2 -0 -1 -0 -1 -1 -2 2 -1 5 5 -10 -5 4 4 1 -1 1 0 0 8 -1 1 -1 -1 -1
-2 -5 -0 2 0 2 -0 -3 -1 1 1 1 -1 -5 -3 2 4 3 -3 -5 -2 -2 -1 -1 -0 1 -5 1 -0 -3 -3 -1
-3 7 0 0 1 -0 1 -1 -1 -3 -3 -1 -0 1 0 -2 -1 -0 -2 -3 -2 -1 -1 1 -0 0 -5 -0 -1 0 -1 -0
0 -3 -0 2 0 -0 -0 1 -1 -2 -1 -3 1 2 -0 1 -3 -2 -3 -2 -1 -1 0 -1 -0 6 -3 -1 -2 -1 -0 -1
Height
1547 1549 1549 1549 1550 1550 1551 1552 1553 1553 1554 1553 1553 1553 1552 1551 1550 1549 1547 1544 1542 1540 1538 1536 1534 1533 1531 1529 1526 1525 1523 1522
1545 1544 1544 1545 1546 1547 1548 1550 1549 1550 1551 1551 1552 1551 1549 1548 1547 1544 1541 1539 1536 1535 1533 1531 1528 1526 1523 1522 1520 1518 1516 1515
1545 1544 1543 1543 1544 1545 1546 1546 1547 1547 1548 1547 1547 1546 1545 1544 1542 1541 1538 1535 1533 1530 1527 1524 1521 1519 1517 1513 1511 1508 1507 1507
1546 1546 1544 1544 1544 1545 1546 1546 1546 1545 1545 1545 1545 1545 1544 1543 1540 1537 1534 1531 1527 1524 1520 1517 1513 1509 1506 1505 1503 1501 1497 1497
1548 1547 1546 1546 1546 1546 1546 1546 1546 1545 1545 1544 1543 1542 1540 1537 1533 1530 1526 1524 1520 1516 1512 1509 1506 1502 1499 1497 1495 1492 1490 1485
1550 1549 1549 1549 1548 1548 1548 1547 1546 1544 1542 1540 1537 1535 1535 1531 1525 1522 1521 1518 1514 1511 1506 1501 1497 1494 1490 1487 1484 1483 1481 1479
1552 1552 1552 1552 1551 1549 1548 1546 1544 1541 1538 1535 1532 1529 1527 1524 1519 1517 1515 1511 1507 1504 1499 1493 1489 1486 1482 1479 1475 1472 1471 1470
1554 1554 1553 1552 1549 1548 1546 1543 1541 1537 1534 1531 1529 1525 1523 1518 1515 1512 1508 1504 1501 1496 1490 1486 1483 1479 1476 1473 1469 1467 1465 1464
1554 1553 1552 1550 1548 1545 1543 1540 1538 1535 1532 1529 1524 1520 1517 1514 1511 1507 1503 1498 1493 1487 1482 1479 1477 1475 1471 1469 1467 1465 1463 1460
1553 1552 1551 1548 1546 1543 1539 1536 1534 1531 1528 1524 1520 1517 1513 1509 1506 1501 1496 1490 1486 1482 1480 1478 1475 1472 1468 1466 1464 1461 1459 1457
1551 1550 1548 1545 1542 1539 1536 1534 1531 1528 1524 1521 1516 1512 1508 1504 1499 1494 1488 1483 1480 1479 1477 1474 1470 1467 1465 1463 1461 1460 1458 1456
1548 1547 1545 1543 1540 1537 1534 1531 1527 1524 1521 1516 1512 1508 1503 1498 1494 1490 1486 1481 1478 1475 1473 1470 1469 1465 1462 1461 1459 1458 1456 1455
1545 1544 1541 1539 1537 1533 1531 1527 1523 1520 1516 1512 1507 1503 1498 1494 1489 1486 1483 1480 1476 1473 1471 1469 1466 1464 1461 1460 1458 1456 1454 1452
1540 1539 1537 1535 1532 1529 1527 1523 1518 1514 1510 1505 1501 1498 1494 1490 1485 1481 1478 1475 1473 1470 1469 1468 1465 1462 1459 1457 1455 1452 1450 1447
1537 1536 1534 1531 1529 1526 1523 1518 1513 1508 1504 1501 1497 1492 1489 1485 1481 1479 1477 1475 1472 1469 1466 1463 1460 1457 1455 1452 1449 1447 1444 1441
1534 1532 1530 1528 1525 1521 1516 1511 1507 1503 1500 1496 1492 1488 1485 1481 1477 1476 1474 1473 1470 1466 1462 1460 1457 1453 1451 1445 1443 1440 1437 1434
1529 1527 1526 1524 1521 1516 1509 1506 1503 1500 1496 1493 1489 1485 1483 1479 1477 1474 1472 1469 1466 1462 1459 1455 1452 1449 1443 1440 1436 1433 1430 1426
1527 1526 1523 1520 1516 1511 1506 1502 1499 1496 1493 1490 1487 1484 1481 1477 1474 1471 1469 1465 1461 1458 1454 1450 1447 1444 1438 1434 1430 1425 1423 1420
1523 1521 1518 1516 1511 1508 1503 1498 1495 1492 1490 1487 1485 1482 1479 1474 1470 1467 1464 1461 1457 1453 1449 1446 1442 1439 1432 1427 1423 1419 1417 1414